Location: Unspecified
(0.0000°N, 0.0000°E)
Time: 09:24:59
(UTC+00:00)

NIMBUS 2 DEB - Pass Details

Date: 21 December 2025
Orbit: 956 x 1029 km, 100.4° (Epoch: 13 January)

Event Time Altitude Azimuth Distance (km) Brightness Sun altitude
Rises 02:15:52 0° 144° (SE) 3,657 ? -49.2°
Reaches altitude 10° 02:18:38 10° 133° (SE) 2,717 ? -48.6°
Enters shadow 02:19:39 14° 127° (SE) 2,410 ? -48.4°
